Regional Weather Roundup
Issued by NWS Charleston, WV

Home | Current Version | Previous Version | Text Only | Print | Product List | Glossary Off
Versions: 1 2 3 4 5 6 7 8 9 10 11 12 13 14 15 16 17 18 19 20 21 22 23 24 25 26 27 28 29 30 31 32 33 34 35 36 37 38 39 40 41 42 43 44 45 46 47 48 49 50

000
ASUS41 KRLX 271210
RWRRLX
West Virginia Regional Weather Roundup
National Weather Service Charleston WV
700 AM EST FRI FEB 27 2015

Note: "fair" indicates few or no clouds below 12,000 feet with no
significant weather and/or obstructions to visibility.

WVZ003-271300-
Northern Panhandle of West Virginia

CITY           SKY/WX    TMP DP  RH WIND       PRES   REMARKS
WHEELING       CLOUDY     4   0  83 N3        30.38R
$$

WVZ009-271300-
Northwest West Virginia

CITY           SKY/WX    TMP DP  RH WIND       PRES   REMARKS
PARKERSBURG    CLEAR      7   2  80 NW3       30.47R
$$

WVZ006-271300-
Western West Virginia

CITY           SKY/WX    TMP DP  RH WIND       PRES   REMARKS
HUNTINGTON     PTCLDY    11   5  77 N7        30.46R WCI   0
$$

WVZ015-271300-
West Central West Virginia

CITY           SKY/WX    TMP DP  RH WIND       PRES   REMARKS
CHARLESTON     LGT SNOW  14   7  73 NW10      30.41R WCI   1
$$

WVZ022-031-271300-
North Central West Virginia

CITY           SKY/WX    TMP DP  RH WIND       PRES   REMARKS
CLARKSBURG     LGT SNOW  11   6  81 NW6       30.37R WCI   1
MORGANTOWN     CLOUDY   N/A N/A N/A N7        30.38R
$$

WVZ025-035-042-045-271300-
Southern West Virginia

CITY           SKY/WX    TMP DP  RH WIND       PRES   REMARKS
BECKLEY        LGT SNOW  15  10  80 NW9       30.24R WCI   3
LOGAN          LGT SNOW  14  10  85 NW5       30.31R WCI   6
BLUEFIELD      LGT SNOW  20  14  77 W9        30.21R WCI   9
LEWISBURG      FLURRIES  20  14  76 W7        30.23R
$$

WVZ047-271300-
Northern Mountains of West Virginia

CITY           SKY/WX    TMP DP  RH WIND       PRES   REMARKS
ELKINS         LGT SNOW N/A N/A N/A NW8       30.28R
$$

WVZ052-271300-
Eastern Panhandle of West Virginia

CITY           SKY/WX    TMP DP  RH WIND       PRES   REMARKS
MARTINSBURG    CLEAR     21   7  54 N9        30.34R
PETERSBURG     CLEAR     20   7  56 NE6       30.33R
$$


USA.gov is the U.S. government's official web portal to all federal, state and local government web resources and services.